This demonstration page uses our WeatherBlox Daily Observations layout. Learn more.

Left ArrowRight Arrow

Hourly Observations for March 27, 2018

Temp ( °F °C ) Dew Point ( °F °C ) Humidity (%) Winds ( mph kmh ) Pressure ( in mb ) Visibility ( mi km ) Precip ( " mm )
12:54 am 00:54 Mostly Cloudy 39 3.9 37 2.8 93 93 NNW 10 17 30.06 1018 8 13 0.00 0.00
1:10 am 01:10 Mostly Cloudy 40 4.4 37 2.8 89 89 NW 8 13 30.09 1019 8 13 0.00 0.00
1:54 am 01:54 Cloudy 41 5 35 1.7 79 79 NNW 21 33 30.08 1019 10 16 0.00 0.00
2:45 am 02:45 Cloudy 40 4.4 35 1.7 83 83 NNW 14 22 30.09 1019 10 16 0.00 0.00
2:54 am 02:54 Cloudy 40 4.4 35 1.7 83 83 N 17 28 30.09 1019 10 16 0.00 0.00
3:26 am 03:26 Partly Cloudy 38 3.3 34 1.1 86 86 N 12 19 30.12 1020 10 16 0.00 0.00
3:54 am 03:54 Mostly Cloudy 38 3.3 34 1.1 86 86 NNW 7 11 30.11 1020 10 16 0.00 0.00
4:54 am 04:54 Clear 36 2.2 33 0.6 89 89 W 5 7 30.14 1021 9 14 0.00 0.00
5:31 am 05:31 Mostly Cloudy 33 0.6 31 -0.6 92 92 NNW 3 6 30.18 1022 8 13 0.00 0.00
5:54 am 05:54 Cloudy 37 2.8 34 1.1 89 89 NW 7 11 30.14 1021 9 14 0.00 0.00
6:54 am 06:54 Mostly Cloudy 36 2.2 33 0.6 89 89 N 6 9 30.15 1021 10 16 0.00 0.00
7:06 am 07:06 Partly Cloudy 35 1.7 32 0 89 89 N 7 11 30.18 1022 10 16 0.00 0.00
7:54 am 07:54 Sunny 36 2.2 32 0 86 86 Calm 30.16 1022 10 16 0.00 0.00
8:54 am 08:54 Sunny 38 3.3 33 0.6 83 83 N 9 15 30.19 1023 10 16 0.00 0.00
9:54 am 09:54 Sunny 40 4.4 33 0.6 77 77 N 15 24 30.19 1022 10 16 0.00 0.00
10:54 am 10:54 Partly Cloudy 43 6.1 34 1.1 71 71 N 12 19 30.20 1023 10 16 0.00 0.00
11:54 am 11:54 Mostly Sunny 47 8.3 35 1.7 63 63 NNE 10 17 30.19 1023 10 16 0.00 0.00
12:54 pm 12:54 Mostly Sunny 49 9.4 35 1.7 59 59 ENE 6 9 30.19 1022 10 16 0.00 0.00
1:54 pm 13:54 Mostly Sunny 54 12.2 35 1.7 49 49 NNE 7 11 30.16 1021 10 16 0.00 0.00
2:54 pm 14:54 Sunny 53 11.7 33 0.6 47 47 ENE 7 11 30.14 1021 10 16 0.00 0.00
3:54 pm 15:54 Sunny 53 11.7 31 -0.6 43 43 NE 6 9 30.13 1020 10 16 0.00 0.00
4:54 pm 16:54 Sunny 53 11.7 31 -0.6 43 43 Calm 30.12 1020 10 16 0.00 0.00
5:54 pm 17:54 Sunny 52 11.1 32 0 47 47 VRB 3 6 30.11 1020 10 16 0.00 0.00
6:54 pm 18:54 Sunny 52 11.1 31 -0.6 45 45 VRB 3 6 30.11 1020 10 16 0.00 0.00
7:54 pm 19:54 Clear 48 8.9 33 0.6 56 56 SE 6 9 30.10 1019 10 16 0.00 0.00
8:54 pm 20:54 Clear 42 5.6 32 0 68 68 SE 5 7 30.10 1019 10 16 0.00 0.00
9:54 pm 21:54 Clear 41 5 32 0 70 70 S 3 6 30.10 1019 10 16 0.00 0.00
10:54 pm 22:54 Clear 40 4.4 32 0 73 73 SSE 6 9 30.10 1019 10 16 0.00 0.00
11:54 pm 23:54 Clear 39 3.9 33 0.6 79 79 S 5 7 30.08 1019 10 16 0.00 0.00

Powered by AerisWeather